Flag for Canada Weather past 2 weeks in Medicine Hat, Alberta, Canada

Now
52 °F

Broken clouds.


Feels Like: 49 °F
Forecast: 33 / 51 °F
Wind: 7 mph from Southwest

Location: Medicine Hat

Current Time: Jan 26, 2015 at 2:11:10 PM

Latest Report: Jan 26, 2015 at 1:00 PM


Visibility: 30 mi

Pressure: 29.90 "Hg

Humidity: 58%

Dew point: 37 °F

Location of Medicine HatLocation

Historic Weather in Medicine Hat — Graph

°F

Medicine Hat temperature yesterday

Maximum temperature yesterday: 57 °F (at 1:00 PM)
Minimum temperature yesterday: 28 °F (at 2:00 AM)
Average temperature yesterday: 41 °F

Past Weeks' High & Low Weather Summary

 TemperatureHumidityPressure
High57 °F (Jan 25, 1:00 PM)100% (Jan 18, 6:00 AM)30.59 "Hg (Jan 18, 6:00 AM)
Low-15 °F (Jan 12, 2:00 AM)46% (Jan 24, 3:00 PM)29.49 "Hg (Jan 16, 1:00 PM)
Average30 °F77%30.05 "Hg
* Reported Jan 11 1:00 PM — Jan 26 1:00 PM, Medicine Hat, Weather by CustomWeather, © 2014

Note: Actual official high and low records may vary slightly from our data, if they occured in-between our weather recording intervals... More about our weather records

Advertising

Medicine Hat weather history for previous 24 hours

 ConditionsComfort  
Time TempWeatherWind HumidityBarometerVisibility
1:00 PM
Jan 26
52 °FBroken clouds.7 mph58%29.90 "Hg30 mi
12:00 PM48 °FBroken clouds.10 mph62%29.92 "Hg30 mi
11:00 AM46 °FMore clouds than sun.8 mph62%29.94 "Hg30 mi
10:00 AM43 °FBroken clouds.12 mph71%29.94 "Hg30 mi
9:00 AM41 °FPartly sunny.12 mph76%29.93 "Hg30 mi
8:00 AM37 °FPassing clouds.9 mph87%29.93 "Hg30 mi
7:00 AM39 °FPassing clouds.9 mph81%29.93 "Hg15 mi
6:00 AM39 °FPassing clouds.13 mph81%29.92 "Hg15 mi
5:00 AM34 °FClear.9 mph93%29.94 "Hg9 mi
4:00 AM32 °FClear.5 mph93%29.95 "Hg9 mi
3:00 AM30 °FClear.3 mph100%29.97 "Hg9 mi
2:00 AM30 °FClear.6 mph100%29.98 "Hg9 mi
1:00 AM32 °FClear.2 mph93%29.99 "Hg9 mi
12:00 AM30 °FClear.3 mph100%29.98 "Hg9 mi
11:00 PM
Jan 25
32 °FClear.6 mph93%29.99 "Hg9 mi
10:00 PM37 °FClear.3 mph81%29.98 "Hg9 mi
9:00 PM36 °FClear.3 mph93%29.97 "Hg9 mi
8:00 PM39 °FPassing clouds.6 mph81%29.96 "Hg15 mi
7:00 PM45 °FPassing clouds.3 mph76%29.95 "Hg15 mi
6:00 PM48 °FPassing clouds.3 mph62%29.89 "Hg15 mi
5:00 PM46 °FPartly sunny.8 mph71%29.89 "Hg30 mi
4:00 PM54 °FPartly sunny.16 mph58%29.85 "Hg30 mi
3:00 PM55 °FPartly sunny.20 mph59%29.83 "Hg30 mi
2:00 PM57 °FOvercast.21 mph55%29.83 "Hg30 mi
Weather by CustomWeather, © 2014

See weather overviewHow to use our weather pages